Regional Weather Roundup
Issued by NWS

Home | Current Version | Previous Version | Graphics & Text | Print | Product List | Glossary On
Versions: 1 2 3 4 5 6 7 8 9 10 11 12 13 14 15 16 17 18 19 20 21 22 23 24 25 26 27 28 29 30 31 32 33 34 35 36 37 38 39 40 41 42 43 44 45 46 47 48 49 50
000
ASUS43 KDMX 311907
RWRIA

WEATHER ROUNDUP FOR IOWA
NATIONAL WEATHER SERVICE DES MOINES IA
200 PM CDT FRI JUL 31 2015

NOTE: "FAIR" INDICATES FEW OR NO CLOUDS BELOW 12,000 FEET WITH NO
SIGNIFICANT WEATHER AND/OR OBSTRUCTIONS TO VISIBILITY.

* - THESE STATIONS ARE NOT NWS STATIONS...THUS NOT UNDER NWS
QUALITY CONTROL.  THEY ALSO DO NOT REPORT WEATHER SUCH
AS PRECIPITATION OR FOG.

IAZ001>003-012>014-020>022-031>034-043>046-312000-
   NORTHWEST IOWA

CITY           SKY/WX    TMP DP  RH WIND       PRES   REMARKS
CARROLL *      SUNNY     82  66  57 NE6       30.11F HX  85
CHEROKEE *     SUNNY     82  61  47 NE5       30.13F HX  83
DENISON *      HAZE      82  70  65 CALM      30.10F VSB 1/2 HX  86
LE MARS *      SUNNY     82  63  51 NE7G13    30.13F HX  83
ORANGE CITY *  SUNNY     81  57  44 E6        30.14F HX  81
SHELDON *      SUNNY     81  54  39 N5        30.13F HX  80
SIOUX CITY     SUNNY     85  69  58 VRB6      30.11F HX  89
SPENCER        SUNNY     84  52  33 N6        30.14F HX  82
STORM LAKE *     N/A     81  57  44 E6        30.14F HX  81
$$

IAZ055>058-069>071-079>083-090>094-312000-
   SOUTHWEST IOWA

CITY           SKY/WX    TMP DP  RH WIND       PRES   REMARKS
ATLANTIC *     SUNNY     86  73  66 CALM      30.11F HX  93
AUDUBON *      SUNNY     84  72  65 NW6       30.13S HX  89
CLARINDA *     SUNNY     88  75  66 W7        30.12F HX  97
COUNCIL BLFS * MOSUNNY   90  72  55 W9        30.11S HX  96
CRESTON *      SUNNY     84  68  58 NW5       30.13F HX  87
HARLAN  *      MOSUNNY   86  79  79 VRB5      30.14F HX  99
LAMONI         SUNNY     85  69  58 VRB3      30.11F HX  89
RED OAK *      MOSUNNY   88  75  66 VRB6      30.11F HX  97
SHENANDOAH *   MOSUNNY   88  75  66 CALM      30.11F HX  97
$$

IAZ047>049-059>061-072>074-084-312000-
   CENTRAL IOWA

CITY           SKY/WX    TMP DP  RH WIND       PRES   REMARKS
AMES           PTSUNNY   86  59  39 N9        30.10F HX  85
ANKENY *       MOSUNNY   84  64  51 N6        30.09F HX  86
CHARITON *     SUNNY     86  70  58 NW6       30.10F HX  90
DES MOINES     MOSUNNY   89  61  38 N5        30.08F HX  89
GRINNELL*      SUNNY     82  63  51 NW7       30.10F HX  83
KNOXVILLE *    SUNNY     84  64  51 NW7       30.09S HX  86
MARSHALLTOWN   MOSUNNY   83  62  49 NW12      30.09F HX  84
PELLA *        SUNNY     86  72  62 CALM      30.10F HX  92
PERRY *          N/A     84  66  54 NE3       30.10F HX  86
$$

IAZ004>006-015-016-023>025-035-036-312000-
   NORTH CENTRAL IOWA

CITY           SKY/WX    TMP DP  RH WIND       PRES   REMARKS
ALGONA *       SUNNY     82  54  36 N9        30.13F HX  81
CLARION *      SUNNY     81  59  47 N10       30.12F HX  81
ESTHERVILLE    SUNNY     82  54  37 N12       30.13F HX  81
FORT DODGE *   SUNNY     82  63  51 N5        30.13F HX  83
MASON CITY     SUNNY     82  56  40 NW15      30.12F HX  82
FOREST CITY *  SUNNY     79  52  38 NW14G20   30.12F
IOWA FALLS *   PTSUNNY   81  59  47 NW8       30.12F HX  81
$$

IAZ007>011-017>019-026>030-037>042-050>054-066-312000-
   NORTHEAST IOWA

CITY           SKY/WX    TMP DP  RH WIND       PRES   REMARKS
CEDAR RAPIDS   SUNNY     83  65  54 NW15      30.06F HX  85
CHARLES CITY * SUNNY     79  57  47 NW14G22   30.10F HX  80
CLINTON *      SUNNY     84  57  39 NW15G23   30.06S HX  83
DECORAH *      SUNNY     79  55  44 NW9G20    30.06S
DUBUQUE        SUNNY     82  54  37 NW20G29   30.05F HX  81
MONTICELLO *   SUNNY     82  55  39 NW15G29   30.05F HX  82
OELWEIN *      SUNNY     81  61  50 NW13      30.09S HX  81
WATERLOO       SUNNY     83  57  41 NW18      30.07F HX  82
$$

IAZ064-065-067-068-078-312000-
   EAST CENTRAL IOWA

CITY           SKY/WX    TMP DP  RH WIND       PRES   REMARKS
DAVENPORT      SUNNY     85  65  51 W13G18    30.05F HX  86
IOWA CITY      SUNNY     87  56  34 NW13G21   30.07F HX  85
MT. PLEASANT * SUNNY     88  55  33 W6        30.08F HX  86
MUSCATINE *    SUNNY     88  57  35 NW8G16    30.06F HX  86
QUAD CITIES    SUNNY     88  56  33 NW15      30.04F HX  86
$$

IAZ062-063-075>077-085>089-095>099-312000-
   SOUTHEAST IOWA

CITY           SKY/WX    TMP DP  RH WIND       PRES   REMARKS
BURLINGTON     SUNNY     86  67  52 W7        30.07F HX  89
FAIRFIELD *    SUNNY     84  66  54 NW7       30.08F HX  86
FORT MADISON * SUNNY     84  70  61 N5        30.08F HX  88
KEOKUK *       SUNNY     88  66  48 W7G13     30.07F HX  90
OSKALOOSA *      N/A     84  66  54 NW5       30.09F HX  86
CENTERVILLE *  SUNNY     84  70  61 W8        30.11F HX  88
OTTUMWA        SUNNY     86  69  56 N3        30.07F HX  90
WASHINGTON *   SUNNY     86  63  45 NW10      30.09F HX  87
$$

ABBREVIATIONS USED IN REMARKS
   TC - TEMPERATURES IN CELSIUS
  WCI - WIND CHILL INDEX
   HX - HEAT INDEX
  VSB - VISIBILITY
$$




USA.gov is the U.S. government's official web portal to all federal, state and local government web resources and services.